Location: Newark
(37.9800°N, 91.3000°W)
Time: 23:43:37
(UTC+00:00)

N. Korean satellite - Pass Details

Date: 27 October 2019
Orbit: 456 x 506 km, 97.2° (Epoch: 12 November)

Event Time Altitude Azimuth Distance (km) Brightness Sun altitude
Rises 11:15:53 0° 26° (NNE) 2,587 10.5 -14.3°
Reaches altitude 10° 11:18:16 10° 40° (NE) 1,707 9.8 -13.8°
Maximum altitude 11:21:17 24° 96° (E) 1,081 9.3 -13.2°
Drops below altitude 10° 11:24:19 10° 151° (SSE) 1,709 9.8 -12.7°
Sets 11:26:41 0° 165° (SSE) 2,591 10.6 -12.2°
